FFT689 KDCA-KDEN

Flight info

Callsign FFT689
Flight time N/A
Altitude 36000
Route WYNGS5 RAMAY Q72 HACKS MXQ VHP IRK SYTHH BRWRY LAWGR4
Aircraft A320/M-SDE3FGHIRWY/LB1

Departure

Time 2026-04-25 19:06
Airport Ronald Reagan Washington National Airport (KDCA)

Arrival

Time N/A
Airport Denver International Airport (KDEN)
Time Latitude Longitude Altitude Speed Heading
2026-04-25 18:30 38.84627 -77.04290 24 ft 0 kts 29°
2026-04-25 18:56 38.84619 -77.04296 26 ft 4 kts 29°
2026-04-25 18:56 38.84596 -77.04314 27 ft 4 kts 44°
2026-04-25 18:56 38.84583 -77.04340 24 ft 4 kts 90°
2026-04-25 18:57 38.84587 -77.04362 24 ft 1 kts 122°
2026-04-25 18:57 38.84589 -77.04365 24 ft 0 kts 122°
2026-04-25 18:59 38.84584 -77.04356 24 ft 3 kts 122°
2026-04-25 18:59 38.84568 -77.04242 23 ft 8 kts 81°
2026-04-25 19:00 38.84601 -77.04080 24 ft 10 kts 63°
2026-04-25 19:00 38.84601 -77.03996 24 ft 10 kts 64°
2026-04-25 19:01 38.84732 -77.03907 24 ft 12 kts 25°
2026-04-25 19:01 38.84812 -77.03882 24 ft 12 kts 359°
2026-04-25 19:01 38.84889 -77.03891 24 ft 10 kts 355°
2026-04-25 19:01 38.84954 -77.03897 24 ft 8 kts 356°
2026-04-25 19:02 38.85063 -77.03908 24 ft 12 kts 355°
2026-04-25 19:02 38.85162 -77.03918 24 ft 15 kts 355°
2026-04-25 19:02 38.85260 -77.03928 24 ft 13 kts 355°
2026-04-25 19:03 38.85401 -77.03942 24 ft 18 kts 355°
2026-04-25 19:03 38.85612 -77.03961 25 ft 19 kts 356°
2026-04-25 19:03 38.85742 -77.03975 30 ft 19 kts 355°
2026-04-25 19:04 38.86011 -77.03956 24 ft 19 kts 16°
2026-04-25 19:04 38.86085 -77.03886 23 ft 9 kts 110°
2026-04-25 19:05 38.86036 -77.03864 24 ft 0 kts 175°
2026-04-25 19:05 38.85376 -77.03796 24 ft 113 kts 176°
2026-04-25 19:05 38.84423 -77.03699 126 ft 153 kts 174°
2026-04-25 19:06 38.83375 -77.03619 836 ft 151 kts 173°
2026-04-25 19:06 38.81263 -77.03555 2046 ft 157 kts 174°
2026-04-25 19:06 38.80104 -77.03536 2251 ft 179 kts 175°
2026-04-25 19:07 38.77282 -77.03482 2673 ft 227 kts 176°
2026-04-25 19:07 38.75643 -77.03794 3032 ft 251 kts 205°
2026-04-25 19:08 38.73923 -77.07659 4592 ft 267 kts 264°
2026-04-25 19:08 38.73910 -77.10019 5569 ft 264 kts 270°
2026-04-25 19:09 38.74049 -77.17105 7960 ft 267 kts 267°
2026-04-25 19:09 38.74033 -77.17877 8216 ft 268 kts 266°
2026-04-25 19:09 38.73908 -77.24283 10263 ft 274 kts 277°
2026-04-25 19:10 38.74484 -77.26635 10920 ft 282 kts 293°
2026-04-25 19:10 38.75505 -77.28854 11281 ft 300 kts 298°
2026-04-25 19:10 38.76636 -77.31217 11427 ft 322 kts 298°
2026-04-25 19:10 38.77851 -77.33742 11548 ft 343 kts 298°
2026-04-25 19:11 38.79123 -77.36379 11726 ft 360 kts 298°
2026-04-25 19:11 38.80474 -77.39176 12185 ft 368 kts 298°
2026-04-25 19:11 38.81811 -77.41949 12747 ft 372 kts 298°
2026-04-25 19:11 38.83173 -77.44783 13362 ft 375 kts 298°
2026-04-25 19:12 38.84543 -77.47643 13922 ft 378 kts 298°
2026-04-25 19:12 38.85922 -77.50527 14437 ft 380 kts 299°
2026-04-25 19:12 38.87311 -77.53427 14952 ft 383 kts 299°
2026-04-25 19:12 38.88705 -77.56345 15449 ft 385 kts 299°
2026-04-25 19:13 38.90106 -77.59289 15946 ft 387 kts 299°
2026-04-25 19:13 38.91513 -77.62244 16463 ft 389 kts 299°
2026-04-25 19:13 38.92876 -77.65249 16959 ft 390 kts 294°
2026-04-25 19:13 38.93859 -77.68497 17442 ft 391 kts 284°
2026-04-25 19:14 38.94375 -77.71926 17889 ft 393 kts 275°
2026-04-25 19:14 38.94442 -77.73099 18040 ft 393 kts 272°
2026-04-25 19:14 38.94642 -77.78979 18709 ft 398 kts 272°
2026-04-25 19:14 38.94765 -77.82553 19091 ft 400 kts 272°
2026-04-25 19:15 38.94888 -77.86133 19487 ft 402 kts 272°
2026-04-25 19:15 38.95013 -77.89725 19882 ft 404 kts 272°
2026-04-25 19:15 38.95136 -77.93294 20248 ft 406 kts 272°
2026-04-25 19:15 38.95260 -77.96924 20632 ft 408 kts 272°
2026-04-25 19:16 38.95384 -78.00570 21008 ft 409 kts 271°
2026-04-25 19:16 38.95510 -78.04270 21367 ft 411 kts 271°
2026-04-25 19:16 38.95632 -78.07906 21707 ft 414 kts 271°
2026-04-25 19:16 38.95714 -78.10384 21933 ft 415 kts 271°
2026-04-25 19:17 38.95872 -78.15330 22381 ft 417 kts 271°
2026-04-25 19:17 38.95950 -78.17814 22606 ft 419 kts 271°
2026-04-25 19:17 38.96067 -78.21595 22940 ft 421 kts 271°
2026-04-25 19:17 38.96225 -78.25331 23263 ft 423 kts 273°
2026-04-25 19:18 38.96455 -78.29127 23575 ft 425 kts 274°
2026-04-25 19:18 38.96724 -78.32921 23844 ft 427 kts 274°
2026-04-25 19:18 38.97010 -78.36753 24128 ft 428 kts 274°
2026-04-25 19:18 38.97288 -78.40566 24407 ft 429 kts 274°
2026-04-25 19:19 38.97548 -78.44353 24683 ft 430 kts 273°
2026-04-25 19:19 38.97800 -78.48230 24944 ft 431 kts 273°
2026-04-25 19:19 38.98039 -78.52041 25199 ft 432 kts 273°
2026-04-25 19:19 38.98199 -78.54609 25371 ft 433 kts 273°
2026-04-25 19:20 38.98518 -78.59788 25707 ft 435 kts 273°
2026-04-25 19:20 38.98754 -78.63664 25963 ft 435 kts 272°
2026-04-25 19:20 38.98987 -78.67512 26217 ft 436 kts 272°
2026-04-25 19:20 38.99224 -78.71425 26437 ft 438 kts 272°
2026-04-25 19:21 38.99461 -78.75302 26674 ft 439 kts 272°
2026-04-25 19:21 38.99935 -78.83119 27396 ft 435 kts 272°
2026-04-25 19:21 39.00168 -78.86982 27744 ft 434 kts 272°
2026-04-25 19:22 39.00401 -78.90837 28109 ft 432 kts 272°
2026-04-25 19:22 39.00631 -78.94656 28490 ft 430 kts 272°
2026-04-25 19:22 39.01082 -79.02302 29235 ft 427 kts 271°
2026-04-25 19:23 39.01304 -79.06143 29639 ft 425 kts 271°
2026-04-25 19:23 39.01737 -79.13668 30307 ft 422 kts 271°
2026-04-25 19:23 39.01954 -79.17441 30631 ft 420 kts 271°
2026-04-25 19:24 39.02174 -79.21144 30939 ft 418 kts 271°
2026-04-25 19:24 39.02415 -79.24881 31234 ft 417 kts 271°
2026-04-25 19:24 39.02912 -79.32268 31780 ft 414 kts 272°
2026-04-25 19:25 39.03406 -79.39597 32375 ft 411 kts 271°
2026-04-25 19:25 39.03643 -79.43245 32690 ft 409 kts 271°
2026-04-25 19:25 39.03874 -79.46874 33030 ft 406 kts 271°
2026-04-25 19:26 39.04104 -79.50521 33336 ft 404 kts 271°
2026-04-25 19:26 39.04329 -79.54120 33687 ft 402 kts 270°
2026-04-25 19:26 39.04553 -79.57697 34040 ft 400 kts 271°
2026-04-25 19:26 39.04777 -79.61234 34385 ft 398 kts 271°
2026-04-25 19:27 39.05003 -79.64780 34739 ft 396 kts 271°
2026-04-25 19:27 39.05153 -79.67153 34927 ft 394 kts 271°
2026-04-25 19:27 39.05439 -79.71798 35281 ft 392 kts 271°
2026-04-25 19:27 39.05649 -79.75271 35528 ft 389 kts 271°
2026-04-25 19:28 39.05856 -79.78741 35776 ft 388 kts 271°
2026-04-25 19:28 39.06060 -79.82168 35894 ft 388 kts 271°
2026-04-25 19:28 39.06484 -79.89123 35909 ft 388 kts 271°
2026-04-25 19:29 39.06903 -79.96049 35906 ft 388 kts 271°
2026-04-25 19:29 39.07314 -80.02936 35903 ft 388 kts 271°
2026-04-25 19:30 39.07719 -80.09843 35896 ft 388 kts 271°
2026-04-25 19:30 39.08111 -80.16747 35902 ft 388 kts 270°
2026-04-25 19:31 39.08509 -80.23701 35892 ft 389 kts 270°
2026-04-25 19:31 39.08904 -80.30628 35888 ft 389 kts 270°
2026-04-25 19:32 39.09287 -80.37620 35886 ft 390 kts 270°
2026-04-25 19:32 39.09598 -80.43433 35886 ft 390 kts 270°
2026-04-25 19:33 39.10030 -80.51533 35887 ft 390 kts 270°
2026-04-25 19:33 39.10392 -80.58496 35892 ft 391 kts 269°
2026-04-25 19:34 39.10761 -80.65524 35886 ft 391 kts 269°
2026-04-25 19:34 39.11134 -80.72509 35882 ft 392 kts 269°
2026-04-25 19:35 39.11503 -80.79539 35882 ft 393 kts 269°
2026-04-25 19:35 39.11849 -80.86507 35887 ft 393 kts 269°
2026-04-25 19:36 39.12193 -80.93525 35894 ft 393 kts 269°
2026-04-25 19:36 39.12531 -81.00569 35884 ft 394 kts 269°
2026-04-25 19:37 39.12874 -81.07618 35883 ft 395 kts 269°
2026-04-25 19:37 39.13613 -81.14693 35889 ft 398 kts 273°
2026-04-25 19:38 39.14467 -81.21727 35899 ft 399 kts 273°
2026-04-25 19:38 39.15322 -81.28794 35923 ft 399 kts 273°
2026-04-25 19:39 39.16173 -81.35856 35907 ft 400 kts 273°
2026-04-25 19:39 39.17029 -81.42946 35905 ft 401 kts 273°
2026-04-25 19:40 39.17882 -81.50088 35900 ft 402 kts 273°
2026-04-25 19:40 39.18723 -81.57200 35886 ft 402 kts 273°
2026-04-25 19:41 39.19571 -81.64312 35891 ft 402 kts 273°
2026-04-25 19:41 39.20135 -81.69084 35910 ft 403 kts 272°
2026-04-25 19:42 39.21246 -81.78612 35891 ft 404 kts 272°
2026-04-25 19:42 39.22077 -81.85780 35895 ft 405 kts 272°
2026-04-25 19:43 39.22910 -81.92956 35894 ft 406 kts 272°
2026-04-25 19:43 39.23743 -82.00185 35898 ft 406 kts 272°
2026-04-25 19:44 39.24569 -82.07372 35903 ft 406 kts 272°
2026-04-25 19:44 39.25392 -82.14599 35907 ft 406 kts 272°
2026-04-25 19:45 39.26210 -82.21823 35909 ft 406 kts 272°
2026-04-25 19:45 39.27034 -82.29044 35911 ft 407 kts 272°
2026-04-25 19:46 39.27845 -82.36221 35910 ft 406 kts 272°
2026-04-25 19:46 39.28651 -82.43469 35920 ft 407 kts 272°
2026-04-25 19:47 39.29451 -82.50700 35912 ft 408 kts 272°
2026-04-25 19:47 39.30237 -82.57954 35913 ft 409 kts 272°
2026-04-25 19:48 39.31023 -82.65213 35913 ft 409 kts 272°
2026-04-25 19:48 39.31809 -82.72498 35920 ft 410 kts 272°
2026-04-25 19:49 39.32345 -82.77374 35920 ft 410 kts 272°
2026-04-25 19:49 39.33418 -82.87098 35914 ft 412 kts 273°
2026-04-25 19:50 39.34595 -82.98135 35903 ft 414 kts 273°
2026-04-25 19:51 39.35366 -83.05471 35911 ft 414 kts 273°
2026-04-25 19:51 39.36140 -83.12870 35914 ft 415 kts 272°
2026-04-25 19:52 39.36907 -83.20222 35929 ft 415 kts 274°
2026-04-25 19:52 39.37681 -83.27615 35924 ft 416 kts 274°
2026-04-25 19:53 39.38451 -83.35054 35921 ft 417 kts 274°
2026-04-25 19:53 39.39208 -83.42479 35923 ft 417 kts 274°
2026-04-25 19:54 39.39964 -83.49911 35947 ft 417 kts 274°
2026-04-25 19:54 39.40717 -83.57361 35970 ft 417 kts 275°
2026-04-25 19:55 39.41458 -83.64786 35968 ft 418 kts 274°
2026-04-25 19:55 39.42188 -83.72246 35961 ft 418 kts 274°
2026-04-25 19:56 39.42919 -83.79695 35965 ft 418 kts 275°
2026-04-25 19:56 39.43926 -83.87136 35962 ft 420 kts 279°
2026-04-25 19:57 39.45205 -83.94500 35970 ft 421 kts 280°
2026-04-25 19:57 39.46481 -84.01883 35959 ft 421 kts 279°
2026-04-25 19:58 39.47682 -84.09319 35956 ft 421 kts 279°
2026-04-25 19:58 39.48841 -84.16730 35960 ft 421 kts 279°
2026-04-25 19:59 39.49996 -84.24117 35962 ft 421 kts 279°
2026-04-25 19:59 39.51167 -84.31563 35967 ft 421 kts 279°
2026-04-25 20:00 39.52341 -84.38965 35971 ft 421 kts 279°
2026-04-25 20:00 39.53328 -84.45208 35974 ft 421 kts 279°
2026-04-25 20:01 39.55249 -84.57560 35967 ft 421 kts 279°
2026-04-25 20:01 39.56398 -84.65007 35967 ft 421 kts 279°
2026-04-25 20:02 39.57354 -84.71205 35976 ft 421 kts 279°
2026-04-25 20:02 39.58497 -84.78649 35977 ft 421 kts 279°
2026-04-25 20:03 39.59630 -84.86133 35972 ft 421 kts 279°
2026-04-25 20:03 39.60756 -84.93568 35968 ft 421 kts 279°
2026-04-25 20:04 39.61884 -85.01009 35977 ft 421 kts 279°
2026-04-25 20:04 39.63007 -85.08497 35976 ft 421 kts 279°
2026-04-25 20:05 39.64130 -85.15954 35968 ft 421 kts 279°
2026-04-25 20:05 39.65232 -85.23367 35964 ft 421 kts 279°
2026-04-25 20:06 39.66340 -85.30856 35961 ft 421 kts 279°
2026-04-25 20:06 39.67434 -85.38285 35967 ft 421 kts 279°
2026-04-25 20:07 39.68529 -85.45760 35975 ft 421 kts 279°
2026-04-25 20:07 39.69619 -85.53217 35967 ft 421 kts 279°
2026-04-25 20:08 39.70708 -85.60674 35963 ft 421 kts 279°
2026-04-25 20:08 39.71796 -85.68160 35968 ft 421 kts 279°